"Pseudo-MPEC" for W10949

Created 2023 Nov 25 6:22:14 UT using Find_Orb

Click here for an explanation of pseudo-MPECs

 
 Astrometry: 
     W10949 * C2023 11 19*HX_MR#/laEyAstrometryoredacted;\7%fs!?::2[kGDppNNgEO18
     W10949   C2023 11 19Zk/L,TB+#$B\jo]c0QPEwwKAclicknAIherefI7f)\O/B)+(`/$vO18
     W10949   C2023 11 19St4=*?GODTfor7lv;explanation3y,S)h(ldexl%aq!oE5fOU3XO18

Station data:
(O18) WFST, Lenghu  (N38.607601 E93.895220).

Orbital elements:  W10949
   Perihelion 2024 Feb 20.44497 +/- 90.8 TT = 10:40:45 (JD 2460360.94497)
Epoch 2023 Nov 20.0 TT = JDT 2460268.5   Earth MOID: 0.1636      AutoNEOCP
M 279.25080158 +/- 70               (J2000 ecliptic)
n   0.87348396 +/- 0.47             Peri.  131.47109 +/- 80
a   1.08384228 +/- 0.389            Node    62.15583 +/- 29
e   0.4990972 +/- 0.258             Incl.   40.07807 +/- 27
P   1.13/412.13d           H 22.22  G  0.15   U 12.2  SR
q 0.54289955 +/- 0.345    Q 1.62478502 +/- 19
From 3 observations 2023 Nov. 19 (15.7 min); mean residual 0".29
Residuals in arcseconds: 
231119 O18  .22-  .19+    231119 O18  .44+  .37-    231119 O18  .22-  .19+    

Ephemerides (geocentric):
Date (UTC) HH   RA             Dec           delta  r     elong  mag " sig PA
---- --------  ------------   ------------  ------ ------ -----  --- --------
2023 11 25 06  03 58 26.791   +21 01 11.29  .22680 1.2140 179.3 19.5  41d 100
2023 11 25 07  03 58 01.860   +21 05 20.22  .22652 1.2137 179.1 19.5  41d 100
2023 11 25 08  03 57 36.843   +21 09 29.55  .22624 1.2134 179.0 19.6  41d 100
2023 11 25 09  03 57 11.742   +21 13 39.26  .22596 1.2131 178.8 19.6  41d 100
2023 11 25 10  03 56 46.554   +21 17 49.36  .22568 1.2128 178.7 19.6  41d 100
2023 11 25 11  03 56 21.281   +21 21 59.84  .22540 1.2125 178.5 19.6  41d 100
2023 11 25 12  03 55 55.922   +21 26 10.70  .22512 1.2122 178.3 19.6  41d 100
2023 11 25 13  03 55 30.477   +21 30 21.93  .22485 1.2119 178.2 19.6  41d 100
2023 11 25 14  03 55 04.945   +21 34 33.54  .22457 1.2116 178.0 19.6  41d 100
2023 11 25 15  03 54 39.326   +21 38 45.51  .22430 1.2113 177.9 19.6  41d 100
2023 11 25 16  03 54 13.621   +21 42 57.85  .22402 1.2110 177.7 19.6  41d 100
2023 11 25 17  03 53 47.829   +21 47 10.55  .22375 1.2107 177.6 19.6  41d 100
2023 11 25 18  03 53 21.949   +21 51 23.60  .22348 1.2104 177.4 19.6  41d 100
2023 11 25 19  03 52 55.983   +21 55 37.01  .22321 1.2101 177.3 19.6  41d 100
2023 11 25 20  03 52 29.928   +21 59 50.77  .22295 1.2098 177.1 19.6  41d 100
2023 11 25 21  03 52 03.786   +22 04 04.87  .22268 1.2095 177.0 19.6  41d 100
2023 11 25 22  03 51 37.556   +22 08 19.32  .22241 1.2092 176.8 19.7  41d 100
2023 11 25 23  03 51 11.238   +22 12 34.10  .22215 1.2089 176.7 19.7  41d 100
2023 11 26 00  03 50 44.832   +22 16 49.22  .22189 1.2086 176.5 19.7  41d 100
2023 11 26 01  03 50 18.337   +22 21 04.67  .22163 1.2083 176.3 19.7  41d 100
2023 11 26 02  03 49 51.754   +22 25 20.44  .22136 1.2080 176.2 19.7  41d 100
2023 11 26 03  03 49 25.082   +22 29 36.54  .22111 1.2077 176.0 19.7  41d 100
2023 11 26 04  03 48 58.321   +22 33 52.95  .22085 1.2074 175.9 19.7  41d 100
2023 11 26 05  03 48 31.471   +22 38 09.68  .22059 1.2071 175.7 19.7  41d 100
2023 11 26 06  03 48 04.532   +22 42 26.72  .22034 1.2068 175.6 19.7  41d 100
2023 11 26 07  03 47 37.503   +22 46 44.06  .22008 1.2065 175.4 19.7  41d 100
2023 11 26 08  03 47 10.385   +22 51 01.70  .21983 1.2062 175.2 19.7  41d 100
2023 11 26 09  03 46 43.176   +22 55 19.64  .21958 1.2059 175.1 19.7  41d 100
2023 11 26 10  03 46 15.878   +22 59 37.88  .21933 1.2056 174.9 19.7  41d 100
2023 11 26 11  03 45 48.490   +23 03 56.40  .21908 1.2053 174.8 19.7  41d 100
2023 11 26 12  03 45 21.012   +23 08 15.20  .21883 1.2050 174.6 19.7  41d 100
2023 11 26 13  03 44 53.443   +23 12 34.28  .21858 1.2047 174.4 19.7  41d 100
2023 11 26 14  03 44 25.784   +23 16 53.64  .21834 1.2044 174.3 19.7  41d 100
2023 11 26 15  03 43 58.034   +23 21 13.27  .21809 1.2041 174.1 19.7  41d 100
2023 11 26 16  03 43 30.194   +23 25 33.16  .21785 1.2038 174.0 19.7  41d 100
2023 11 26 17  03 43 02.262   +23 29 53.31  .21761 1.2035 173.8 19.7  41d 100
2023 11 26 18  03 42 34.239   +23 34 13.71  .21737 1.2032 173.6 19.7  41d 100
2023 11 26 19  03 42 06.125   +23 38 34.37  .21713 1.2029 173.5 19.7  41d 100
2023 11 26 20  03 41 37.920   +23 42 55.27  .21689 1.2026 173.3 19.8  41d 100
2023 11 26 21  03 41 09.623   +23 47 16.41  .21665 1.2023 173.2 19.8  42d 100
2023 11 26 22  03 40 41.235   +23 51 37.79  .21642 1.2020 173.0 19.8  42d 100
2023 11 26 23  03 40 12.755   +23 55 59.39  .21618 1.2017 172.8 19.8  42d 100
2023 11 27 00  03 39 44.183   +24 00 21.23  .21595 1.2014 172.7 19.8  42d  99
2023 11 27 01  03 39 15.519   +24 04 43.28  .21572 1.2011 172.5 19.8  42d  99
2023 11 27 02  03 38 46.762   +24 09 05.54  .21549 1.2008 172.4 19.8  42d  99
2023 11 27 03  03 38 17.914   +24 13 28.02  .21526 1.2005 172.2 19.8  42d  99
2023 11 27 04  03 37 48.973   +24 17 50.70  .21503 1.2002 172.0 19.8  42d  99
2023 11 27 05  03 37 19.940   +24 22 13.58  .21480 1.1999 171.9 19.8  42d  99